This is the latest recevied weather packets stored in our database for station/object K7FLA. If no packets are shown the sender has not sent any weather packets the latest 10 day(s).
| Time | Temp. | Humidity | Pressure | Rain* | Wind** | Luminosity | Snow |
|---|---|---|---|---|---|---|---|
| 1788254032 | 16.67° C | 55% | 1096.4 hPa | 0 mm | - | 0 W/m² | - |
| 1788253727 | 16.67° C | 54% | 1096.2 hPa | 0 mm | - | 0 W/m² | - |
| 1788253422 | 16.67° C | 54% | 1096.3 hPa | 0 mm | - | 0 W/m² | - |
| 1788253119 | 16.67° C | 53% | 1096.4 hPa | 0 mm | - | 0 W/m² | - |
| 1788252819 | 16.67° C | 51% | 1096.2 hPa | 0 mm | - | 0 W/m² | - |
| 1788252516 | 17.22° C | 48% | 1096.2 hPa | 0 mm | - | 0 W/m² | - |
| 1788252211 | 17.22° C | 47% | 1096.1 hPa | 0 mm | - | 0 W/m² | - |
| 1788251906 | 17.22° C | 45% | 1096.5 hPa | 0 mm | - | 0 W/m² | - |
| 1788251600 | 17.22° C | 44% | 1096.4 hPa | 0 mm | - | 0 W/m² | - |
| 1788251299 | 17.78° C | 42% | 1096.4 hPa | 0 mm | - | 0 W/m² | - |
| 1788250994 | 17.78° C | 42% | 1096.6 hPa | 0 mm | - | 0 W/m² | - |
| 1788250689 | 17.78° C | 42% | 1096.4 hPa | 0 mm | - | 0 W/m² | - |
| 1788250389 | 17.78° C | 42% | 1096.6 hPa | 0 mm | - | 0 W/m² | - |
| 1788250084 | 17.78° C | 42% | 1096.4 hPa | 0 mm | - | 0 W/m² | - |
| 1788249779 | 17.78° C | 43% | 1096.6 hPa | 0 mm | - | 0 W/m² | - |
| 1788249473 | 17.78° C | 43% | 1096.7 hPa | 0 mm | - | 0 W/m² | - |
| 1788249168 | 17.78° C | 46% | 1096.7 hPa | 0 mm | - | 0 W/m² | - |
| 1788248867 | 17.78° C | 49% | 1096.6 hPa | 0 mm | - | 0 W/m² | - |
| 1788248562 | 17.78° C | 48% | 1096.4 hPa | 0 mm | - | 0 W/m² | - |
| 1788248259 | 18.33° C | 47% | 1096.5 hPa | 0 mm | - | 0 W/m² | - |
| 1788247954 | 18.33° C | 47% | 1096.6 hPa | 0 mm | - | 0 W/m² | - |
| 1788247649 | 18.33° C | 48% | 1096.5 hPa | 0 mm | - | 0 W/m² | - |
| 1788247344 | 18.89° C | 46% | 1096.5 hPa | 0 mm | - | 0 W/m² | - |
| 1788247039 | 18.89° C | 47% | 1096.4 hPa | 0 mm | - | 0 W/m² | - |
| 1788246739 | 18.89° C | 47% | 1096.5 hPa | 0 mm | - | 0 W/m² | - |
* Rain latest hour (hover to see other rain measurements)
** Current wind speed in m/s (hover to see current wind gust speed)